Location: Andersons Point
(33.0500°S, 151.6500°E)
Time: 15:18:03
(UTC+00:00)

Daily predictions for brighter satellites

Satellite Brightness Start Highest point End
(mag) Time Altitude Azimuth Time Altitude Azimuth Time Altitude Azimuth
ATLAS 3B R/B 3.6 17:45:45 44° ENE 17:45:45 44° ENE 17:50:30 10° NE
Lacrosse 4 Rocket 4.2 18:19:00 13° SE 18:20:00 14° SE 18:22:26 10° E
Okean O Rocket 3.8 18:23:03 10° ENE 18:26:35 24° ESE 18:28:52 16° SSE
OAO 3 Rocket 4.4 18:40:26 32° N 18:41:06 34° NNE 18:45:26 10° E
Lacrosse 5 rocket 3.8 18:39:38 11° NNE 18:42:04 19° ENE 18:44:48 10° ESE
Cosmos 2142 Rocket 4.5 18:38:47 24° S 18:42:44 78° E 18:48:51 10° N
Cosmos 968 Rocket 4.1 18:44:23 44° N 18:44:23 44° N 18:47:59 10° N
CZ-4B DEB 4.1 18:40:42 10° NNE 18:46:11 85° ESE 18:47:46 49° S
Chandra Rocket (1) 4.1 18:47:38 36° WNW 18:50:35 45° NNW 18:55:26 10° NE
CZ-4C R/B 3.0 18:48:55 46° WNW 18:51:02 59° WSW 18:58:19 10° SSE
Cosmos 1066 Rocket 4.1 18:46:30 10° NNW 18:52:16 71° W 18:57:59 10° S
PAYLOAD B 4.2 18:49:26 10° NNE 18:54:57 86° ESE 18:57:58 29° SSW
Cosmos 1634 Rocket 4.0 18:56:38 54° WSW 18:57:11 55° W 19:03:17 10° NNW
H-2A R/B 3.1 18:54:35 10° NNE 18:58:27 63° ESE 18:59:03 54° SSE
CZ-3B R/B 4.4 18:26:39 10° SW 18:59:13 76° SE 19:04:54 10° NE
Cosmos 2084 Rocket 3.6 18:59:25 62° SSE 18:59:47 65° ESE 19:03:55 10° NE
MOS 1-B 4.3 18:59:17 10° N 19:05:01 64° WNW 19:07:35 34° SSW
Cosmos 1354 Rocket 3.9 19:04:25 51° SW 19:05:40 71° WNW 19:10:53 10° N
Cosmos 1242 Rocket 2.5 19:06:13 10° N 19:13:42 - S 19:09:36 80° NNE
Nadezhda 4 Rocket 4.1 19:06:31 10° N 19:12:50 77° E 19:19:10 10° S
Meteor 1-15 Rocket 4.2 19:11:02 19° SSW 19:15:14 65° W 19:21:05 10° N
Cosmos 1975 Rocket 3.5 19:11:06 10° N 19:15:33 65° E 19:20:04 10° SSE
Cosmos 220 Rocket 3.8 19:11:54 10° NNW 19:16:05 66° WSW 19:20:21 10° S
Cosmos 1271 Rocket 3.1 19:17:36 10° N 19:21:18 62° E 19:25:05 10° SSE
ADEOS Rocket 3.5 19:19:03 10° SSE 19:24:31 55° E 19:29:56 10° N
Cosmos 1733 3.4 19:24:07 11° S 19:27:56 72° E 19:31:46 10° NNE
Helios 1A Rocket 4.3 19:24:30 10° NE 19:28:16 38° ESE 19:32:05 10° S
FALCON 9 DEB 3.4 19:30:40 45° W 19:31:09 50° NW 19:34:34 10° NNE
Cosmos 1656 3.6 19:26:29 10° NNW 19:32:01 81° WSW 19:37:43 10° SSE
Cosmos 2227 Rocket 3.8 19:26:56 10° S 19:32:05 33° ESE 19:37:10 10° NE
ATLAS 3B R/B 3.8 19:33:04 22° W 19:33:48 22° WNW 19:38:51 10° NNW
Cosmos 2279 Rocket 4.3 19:28:24 10° SSW 19:34:22 45° W 19:40:16 10° NNW
Atlas Centaur 2 4.2 19:28:20 10° NW 19:35:02 32° NNE 19:40:42 10° E
SL-4 R/B 3.8 19:36:08 13° NW 19:36:08 13° NW 19:37:20 10° NNW
Cosmos 1455 Rocket 4.0 19:33:21 10° S 19:37:41 48° E 19:41:55 10° NNE
Cosmos 2219 3.8 19:34:41 10° SSW 19:40:25 58° ESE 19:46:04 10° NNE
SMAP 3.0 19:37:04 10° N 19:41:43 69° W 19:46:26 10° SSW
Timation 2 Rocket 4.2 19:36:42 10° SSW 19:43:35 71° WNW 19:50:24 10° N
Cosmos 1707 4.0 19:40:08 10° NNE 19:43:52 44° E 19:47:40 10° SSE
Envisat 3.0 19:39:42 10° N 19:44:45 65° W 19:49:52 10° SSW
USA 234 3.3 19:39:41 10° NE 19:46:14 77° NW 19:52:06 14° SW
Cosmos 1980 Rocket 4.0 19:43:32 10° NNE 19:48:35 35° ENE 19:53:39 10° SE
Cosmos 1689 Rocket 2.9 19:49:29 26° SW 19:50:11 29° WSW 19:52:52 10° NW
PSLV R/B 3.9 19:47:57 10° S 19:52:04 67° WSW 19:56:10 10° NNW
Cosmos 1805 4.1 19:51:19 18° SW 19:53:30 30° W 19:56:58 10° NNW
ARGOS Delta rocket 4.2 19:50:09 10° NNE 19:55:30 79° ESE 20:00:40 10° S
Lacrosse 4 Rocket 1.8 19:55:21 14° SW 19:58:55 49° WNW 20:03:14 10° N
COSMO-SKYMED 1 2.5 19:57:10 10° S 20:01:36 86° W 20:05:57 10° NNW
CZ-4B R/B 4.0 19:57:38 10° NNW 20:02:22 30° W 20:07:14 10° SW
Okean O Rocket 2.7 19:59:07 10° NNW 20:02:46 25° W 20:06:19 11° SW
Cosmos 1766 4.3 20:03:04 11° SW 20:06:12 25° W 20:09:30 10° NNW
Cosmos 921 Rocket 3.8 20:08:31 10° NW 20:12:12 29° WSW 20:15:54 10° S
Cosmos 2360 4.3 20:08:03 10° NNW 20:13:47 86° ENE 20:19:33 10° SSE
YAOGAN 1 4.0 20:10:39 10° NE 20:14:41 39° ESE 20:18:47 10° S
Cosmos 1536 Rocket 3.6 20:12:25 10° N 20:16:48 89° E 20:21:13 10° S
Cosmos 1953 3.9 20:13:53 10° S 20:17:43 38° E 20:21:29 10° NNE
Okean-O 2.8 20:14:49 10° NNE 20:19:16 81° ESE 20:23:46 10° S
Cosmos 1544 Rocket 3.5 20:15:02 10° S 20:19:25 75° W 20:23:45 10° N
Cosmos 1697 Rocket 2.7 20:14:57 10° NNW 20:20:28 58° WSW 20:26:04 10° SSE
Lacrosse 5 rocket 1.9 20:17:35 10° WNW 20:20:57 31° SW 20:24:29 10° SSE
YAOGAN 6 4.0 20:20:31 10° NW 20:23:17 20° W 20:26:04 10° SW
OAO 3 Rocket 3.2 20:19:34 10° WNW 20:24:24 90° NNE 20:29:11 10° ESE
Cosmos 468 Rocket 4.0 20:25:20 10° NNW 20:30:36 67° WSW 20:35:54 10° S
Cosmos 2297 Rocket 2.4 20:27:27 10° SSW 20:33:02 58° WNW 20:38:35 10° N
